Weather History for Thomson, GA

Change the Weather History Date:

Monday, August 27, 2012

  Actual Average (KDBN) Record (KDBN)
Temperature  
Mean Temperature 72 °F -  
Max Temperature 85 °F 91 °F 104 °F (1954)
Min Temperature 59 °F 66 °F 26 °F (2007)
Cooling Degree Days 7    
Growing Degree Days 22 (Base 50)    
Moisture  
Dew Point 69 °F    
Average Humidity 87    
Maximum Humidity 100    
Minimum Humidity 65    
Precipitation  
Precipitation 0.00 in - - ()
Sea Level Pressure  
Sea Level Pressure 30.10 in    
Wind  
Wind Speed 3 mph (ENE)    
Max Wind Speed 13 mph    
Max Gust Speed 20 mph    
Visibility 8 miles    
Events      
Averages and records for this station are not official NWS values.
T = Trace of Precipitation, MM = Missing Value Source: NWS Daily Summary

Daily Weather History Graph

Daily Weather History Graph

Search for Another Location

Airport:

Trip Planner

Search our weather history database for the weather conditions in past years. The results will help you decide how hot, cold, wet, or windy it might be!

Date:

Astronomy

Aug. 27, 2012 Rise Set
Actual Time 7:01 AM EDT 8:01 PM EDT
Civil Twilight 6:35 AM EDT 8:26 PM EDT
Nautical Twilight 6:05 AM EDT 8:57 PM EDT
Astronomical Twilight 5:33 AM EDT 9:28 PM EDT
Moon 5:12 PM EDT (8/27) 2:52 AM EDT (8/27)
Length of Visible Light 13h 51m
Length of Day
13h 00m
Waxing Gibbous, 82% of the Moon is Illuminated
Aug 27
Waxing Gibbous
Aug 31
Full
Sep 8
Last Quarter
Sep 15
New
Sep 22
First Quarter

Hourly Weather History & Observations

Time (EDT) Temp. Heat Index Dew Point Humidity Pressure Visibility Wind Dir Wind Speed Gust Speed Precip Events Conditions
12:15 AM 65.8 °F - 65.8 °F 100% 30.15 in 7.0 mi Calm Calm - N/A   Clear
12:55 AM 65.3 °F - 65.3 °F 100% 30.14 in 7.0 mi Calm Calm - N/A   Clear
1:15 AM 64.6 °F - 64.6 °F 100% 30.13 in 5.0 mi Calm Calm - N/A   Clear
1:35 AM 63.7 °F - 63.7 °F 100% 30.13 in 4.0 mi Calm Calm - N/A   Clear
1:55 AM 63.9 °F - 63.9 °F 100% 30.12 in 4.0 mi Calm Calm - N/A   Clear
2:15 AM 62.6 °F - 62.6 °F 100% 30.12 in 3.0 mi Calm Calm - N/A   Clear
2:35 AM 62.1 °F - 62.1 °F 100% 30.12 in 3.0 mi Calm Calm - N/A   Clear
2:55 AM 61.7 °F - 61.7 °F 100% 30.12 in 4.0 mi Calm Calm - N/A   Clear
3:15 AM 61.9 °F - 61.9 °F 100% 30.12 in 4.0 mi Calm Calm - N/A   Clear
3:35 AM 62.4 °F - 62.4 °F 100% 30.11 in 3.0 mi Calm Calm - N/A   Clear
3:55 AM 62.1 °F - 62.1 °F 100% 30.11 in 3.0 mi Calm Calm - N/A   Clear
4:15 AM 61.7 °F - 61.7 °F 100% 30.11 in 4.0 mi Calm Calm - N/A   Clear
4:35 AM 61.2 °F - 61.2 °F 100% 30.11 in 3.0 mi Calm Calm - N/A   Clear
5:15 AM 59.9 °F - 59.9 °F 100% 30.12 in 3.0 mi Calm Calm - N/A   Clear
5:35 AM 60.3 °F - 60.3 °F 100% 30.13 in 4.0 mi Calm Calm - N/A   Clear
5:55 AM 60.3 °F - 60.3 °F 100% 30.13 in 4.0 mi Calm Calm - N/A   Clear
6:15 AM 60.1 °F - 60.1 °F 100% 30.13 in 3.0 mi Calm Calm - N/A   Clear
6:35 AM 60.3 °F - 60.3 °F 100% 30.12 in 5.0 mi Calm Calm - N/A   Clear
7:15 AM 59.9 °F - 59.9 °F 100% 30.15 in 2.5 mi Calm Calm - N/A   Clear
7:35 AM 61.2 °F - 61.2 °F 100% 30.15 in 4.0 mi Calm Calm - N/A   Clear
7:55 AM 62.6 °F - 62.6 °F 100% 30.15 in 4.0 mi NE 3.5 mph - N/A   Clear
8:15 AM 66.4 °F - 66.4 °F 100% 30.16 in 5.0 mi NE 4.6 mph - N/A   Clear
8:35 AM 70.2 °F - 68.9 °F 96% 30.16 in 10.0 mi NE 4.6 mph - N/A   Clear
8:55 AM 72.1 °F - 68.7 °F 89% 30.16 in 10.0 mi NE 5.8 mph - N/A   Clear
9:15 AM 73.8 °F - 69.3 °F 86% 30.16 in 10.0 mi NNE 5.8 mph - N/A   Clear
9:35 AM 75.6 °F - 69.4 °F 81% 30.15 in 10.0 mi NNE 10.4 mph - N/A   Clear
9:55 AM 77.5 °F - 70.2 °F 78% 30.16 in 10.0 mi NNE 5.8 mph - N/A   Clear
10:15 AM 78.4 °F - 69.8 °F 75% 30.16 in 10.0 mi NNE 8.1 mph - N/A   Clear
10:35 AM 79.7 °F - 70.2 °F 73% 30.15 in 10.0 mi NNE 8.1 mph - N/A   Clear
10:55 AM 80.6 °F 84.1 °F 70.5 °F 71% 30.15 in 10.0 mi NNE 9.2 mph - N/A   Clear
11:15 AM 80.8 °F 84.4 °F 70.7 °F 71% 30.15 in 10.0 mi ENE 11.5 mph - N/A   Clear
11:35 AM 81.7 °F 85.6 °F 70.7 °F 69% 30.15 in 10.0 mi East 11.5 mph 18.4 mph N/A   Scattered Clouds
11:55 AM 82.9 °F 88.0 °F 72.0 °F 69% 30.14 in 10.0 mi ENE 12.7 mph 19.6 mph N/A   Scattered Clouds
12:15 PM 82.2 °F 86.9 °F 71.6 °F 70% 30.14 in 10.0 mi ENE 11.5 mph - N/A   Scattered Clouds
12:35 PM 82.9 °F 87.7 °F 71.4 °F 68% 30.13 in 10.0 mi ENE 6.9 mph 10.4 mph N/A   Scattered Clouds
12:55 PM 83.1 °F 88.4 °F 72.0 °F 69% 30.12 in 10.0 mi ENE 8.1 mph - N/A   Mostly Cloudy
1:15 PM 83.1 °F 88.9 °F 72.7 °F 71% 30.11 in 10.0 mi NE 6.9 mph - N/A   Mostly Cloudy
1:55 PM 83.5 °F 88.8 °F 72.0 °F 68% 30.09 in 10.0 mi ENE 11.5 mph 16.1 mph N/A   Mostly Cloudy
2:15 PM 84.4 °F 90.3 °F 72.1 °F 67% 30.08 in 10.0 mi NE 11.5 mph 16.1 mph N/A   Scattered Clouds
2:35 PM 85.1 °F 91.1 °F 72.3 °F 65% 30.08 in 10.0 mi ENE 9.2 mph - N/A   Mostly Cloudy
2:55 PM 84.9 °F 91.1 °F 72.3 °F 66% 30.07 in 10.0 mi ENE 8.1 mph - N/A   Overcast
3:15 PM 85.5 °F 92.2 °F 72.9 °F 66% 30.06 in 10.0 mi ENE 9.2 mph - N/A   Scattered Clouds
3:35 PM 84.9 °F 90.7 °F 72.0 °F 65% 30.06 in 10.0 mi East 8.1 mph - N/A   Mostly Cloudy
3:55 PM 85.3 °F 91.8 °F 72.7 °F 66% 30.05 in 10.0 mi East 8.1 mph - N/A   Overcast
4:15 PM 83.8 °F 89.5 °F 72.3 °F 68% 30.05 in 10.0 mi East 5.8 mph 16.1 mph N/A   Overcast
4:35 PM 84.4 °F 90.6 °F 72.7 °F 68% 30.05 in 10.0 mi East 5.8 mph - N/A   Mostly Cloudy
4:55 PM 83.7 °F 89.4 °F 72.7 °F 69% 30.04 in 10.0 mi East 6.9 mph - N/A   Mostly Cloudy
5:15 PM 84.9 °F 92.1 °F 73.6 °F 69% 30.04 in 10.0 mi East 8.1 mph - N/A   Scattered Clouds
5:35 PM 84.6 °F 90.7 °F 72.7 °F 67% 30.04 in 10.0 mi East 4.6 mph - N/A   Clear
5:55 PM 84.0 °F 90.5 °F 73.4 °F 70% 30.04 in 10.0 mi ESE 4.6 mph - N/A   Clear
6:15 PM 83.5 °F 89.7 °F 73.0 °F 71% 30.04 in 10.0 mi East 3.5 mph - N/A   Scattered Clouds
6:35 PM 79.9 °F - 74.3 °F 83% 30.05 in 10.0 mi SE 5.8 mph - N/A   Mostly Cloudy
6:55 PM 78.8 °F - 74.5 °F 87% 30.05 in 10.0 mi SE 3.5 mph - N/A   Mostly Cloudy
7:15 PM 77.9 °F - 75.4 °F 92% 30.05 in 10.0 mi East 3.5 mph - N/A   Mostly Cloudy
7:35 PM 76.1 °F - 74.5 °F 95% 30.05 in 10.0 mi East 6.9 mph - N/A   Mostly Cloudy
7:55 PM 75.2 °F - 73.0 °F 93% 30.05 in 10.0 mi ENE 5.8 mph - N/A   Scattered Clouds
8:15 PM 74.3 °F - 72.5 °F 94% 30.06 in 10.0 mi East 5.8 mph - N/A   Clear
8:35 PM 74.1 °F - 72.5 °F 95% 30.06 in 10.0 mi East 5.8 mph - N/A   Scattered Clouds
8:55 PM 73.6 °F - 72.7 °F 97% 30.06 in 10.0 mi East 5.8 mph - N/A   Scattered Clouds
9:15 PM 73.4 °F - 72.7 °F 98% 30.06 in 10.0 mi East 3.5 mph - N/A   Clear
9:35 PM 73.0 °F - 72.9 °F 99% 30.06 in 10.0 mi East 3.5 mph - N/A   Clear
9:55 PM 72.9 °F - 72.9 °F 100% 30.07 in 10.0 mi East 4.6 mph - N/A   Clear
10:15 PM 72.9 °F - 72.9 °F 100% 30.07 in 10.0 mi ENE 4.6 mph - N/A   Clear
10:35 PM 72.5 °F - 72.5 °F 100% 30.07 in 10.0 mi Calm Calm - N/A   Clear
10:55 PM 72.0 °F - 72.0 °F 100% 30.07 in 10.0 mi East 3.5 mph - N/A   Clear
11:15 PM 72.0 °F - 72.0 °F 100% 30.07 in 10.0 mi East 3.5 mph - N/A   Scattered Clouds
11:35 PM 72.1 °F - 72.1 °F 100% 30.07 in 10.0 mi Calm Calm - N/A   Mostly Cloudy
11:55 PM 72.0 °F - 72.0 °F 100% 30.07 in 7.0 mi Calm Calm - N/A   Scattered Clouds